Location: Glendale
(37.4556°N, 88.6714°W)
Time: 01:09:41
(UTC+00:00)

GEOS 3 Rocket - Pass Details

Date: 08 December 2019
Orbit: 783 x 836 km, 115.0° (Epoch: 17 January)

Event Time Altitude Azimuth Distance (km) Brightness Sun altitude
Rises 11:11:48 0° 152° (SSE) 3,254 7.4 -20.2°
Reaches altitude 10° 11:14:05 10° 155° (SSE) 2,331 6.5 -19.7°
Maximum altitude 11:19:05 67° 237° (WSW) 854 3.5 -18.8°
Enters shadow 11:21:43 29° 313° (NW) 1,426 4.4 -18.3°
